Погода в Тунгокочене

Погода в Тунгокочене : погода сейчас, прогноз погоды и архив. Всё, что Вы хотите узнать о погоде в Тунгокочене!

Хотите узнать прогноз погоды в Тунгокочене? Тогда Вам сюда: Погода в Тунгокочене

Поиск расширенной информации на нашем сайте:

Другие новости

Новости СМИ2

Главная страница сайта

Новости сайта

02.10.2013

Напоминаем, что на нашем новом сайте вы можете получить высокодетализированные прогнозы погоды по пунктам России, СНГ и мира (включающие важные для авиации метеовеличины, такие как направление и скорость ветра, видимость, явления погоды, количество и форма облачности, нижняя и верхняя граница облачности), а также ознакомиться с разнообразными материалами по авиационной метеорологии и подборкой полезных ссылок на эту тему.

Сайт Метеоцентр.Азия посвящён разработке технологий оптимизации авиаметеорологического обслуживания, включая проектирование и перспективное создание нескольких автоматизированных авиаметеорологических систем:
- система выпуска высокодетальных прогностических карт явлений погоды для нижнего воздушного пространства по России и ближнему зарубежью;
- система верификации прогнозов TAF (выпускаемых синоптиками официальных АМСГ РФ и ближнего зарубежья) и AUTOTAF (выпускаемых сайтом Метеоцентр.Азия) - выявление ошибок, онлайн-сопоставление с фактической погодой METAR, автоматическое внесение коррективов в прогнозы при резком отклонении фактической погоды от прогноза, подсчёт оправдываемости прогнозов по элементам и в целом;
- система обработки, анализа и отображения авиаметеорологической информации для применения провайдерами метеорологической информации.


Погода в Тунгокочене - сегодня

Время (UTC), дата Ветер
(°,м/с) 
Видим.   Явления Облачность Т
(°С)
Тd
(°С)
f(%) Тe
(°С)
Pmin
(гПа)
dP
(гПа)
Po
(мм)
O2
(г/м3)
Тmin Tmax R s Состояние
почвы
18 19.02.17 тихо ()   20000 м    ясно 
-31 -33.4 79 -31  1033.8  0.4  692  316           
21 19.02.17 тихо ()   20000 м    ясно 
-32.2 -34.6 79 -32  1036  1.4  693  319           
00 20.02.17 тихо ()   20000 м    ясно 
-33.4 -35.6 81 -33  1037.3  0.7  694  320  -33.4      18  равномерный
сухой снег
100% 
03 20.02.17 тихо ()   20000 м    ясно 
-18.5 -22.6 70 -19  1030.1  -0.3  694  301           
06 20.02.17 тихо ()   20000 м    ясно 
-7.4 -17.7 44 -7  1023.6  -1.7  692  288           
09 20.02.17 190 (Ю) 20000 м    3/0 средняя, верхняя 
[Ac lent|Ci fib]
-6.4 -17.9 40 -8  1021.8  -1.3  691  287           
12 20.02.17 тихо ()   20000 м    ясно 
-23.2 -27.2 70 -23  1028.9  691  306    -4.9       
15 20.02.17 тихо ()   20000 м    ясно 
-26.7 -29.2 79 -27  1029.8  -0.5  691  310           
18 20.02.17 тихо ()   20000 м    ясно 
-28.6 -30.4 84 -29  1029.6  -1  690  312           
21 20.02.17 270 (З) 20000 м    3/0 средняя 
[Ac lent]
-30.7 -32.4 85 -31  1029.5  -1  690  315           
00 21.02.17 тихо ()   20000 м    3/0 средняя 
[Ac lent]
-32.1 -33.7 86 -32  1030.8  0.5  690  317  -32.2      18  равномерный
сухой снег
100% 
03 21.02.17 тихо ()   20000 м    ясно 
-18.5 -22.6 70 -19  1025.5  0.8  691  300  -32.8         
06 21.02.17 тихо ()   20000 м    ясно 
-6 -17.1 41 -6  1019.2  -1  690  285           
09 21.02.17 340 (С) 20000 м    9/4 1000 м кучево-дожд., верхняя 
[Cb cap|Cc]
-8.4 -18.1 45 -11  1020.1  -0.1  690  288           
12 21.02.17 210 (ЮЗ) 20000 м    3/0 средняя 
[Ac lent]
-16 -22 60 -16  1024.8  1.5  691  297    -5.4       
15 21.02.17 230 (ЮЗ) 20000 м    ясно 
-23.1 -25.7 79 -24  1029.1  1.1  692  306           
18 21.02.17 тихо ()   20000 м    3/0 средняя, верхняя 
[Ac lent|Ci fib]
-26 -28.4 80 -26  1031.1  0.3  692  310           
21 21.02.17 180 (Ю) 20000 м    1/0 верхняя 
[Ci fib]
-29 -30.7 85 -30  1032.4  0.1  692  314           
00 22.02.17 тихо ()   20000 м    10/0 средняя, верхняя 
[Ac lent|Ci sp]
-32 -34.4 79 -32  1034.4  0.6  692  318  -32.5      18  равномерный
сухой снег
100% 
03 22.02.17 тихо ()   20000 м    3/0 верхняя 
[Ci fib]
-20.8 -24.8 70 -21  1030.2  0.8  693  304  -32.6         
06 22.02.17 300 (СЗ) 20000 м    3/0 верхняя 
[Ci fib]
-9.6 -19.6 44 -11  1023.9  -1.4  692  290           
09 22.02.17 320 (СЗ) 20000 м    ясно 
-8.9 -19 44 -12  1023.1  -0.4  692  289           
12 22.02.17 тихо ()   20000 м    ясно 
-22 -27.7 60 -22  1029.2  0.4  692  305    -5.6       
15 22.02.17 тихо ()   20000 м    ясно 
-26.7 -29.9 74 -27  1030.7  -0.4  692  311           
18 22.02.17 тихо ()   20000 м    ясно 
-29.9 -32.4 79 -30  1031.4  -0.8  691  314           
Время (UTC), дата Ветер
(°,м/с) 
Видим.   Явления Облачность Т
(°С)
Тd
(°С)
f(%) Тe
(°С)
Pmin
(гПа)
dP
(гПа)
Po
(мм)
O2
(г/м3)
Тmin Tmax R s Состояние
почвы

Для получения пояснительной информации подведите курсор к названию столбца.

ПОГОДА в Тунгокочене - архив

Всё, что Вы хотите узнать о погоде в Тунгокочене - удобно и подробно!

Выберите нужную дату (начиная с 1 января 2015* года) и нажмите кнопку "Найти".
Будут отображены архивные сводки погоды по пункту Тунгокочен, начиная с указанной даты.


Отображать данные в формате CSV (для использования в таблицах Excel)


Внимание! Наш архив погоды предназначен исключительно для личного некоммерческого использования в познавательных целях. Если Вам необходимы официальные справки о состоянии погоды (для производственных, юридических, коммерческих и т.п. целей), обращайтесь в органы Росгидромета.

*Примечание: данная дата относится к архиву по метеостанциям СССР (Россия, СНГ, Балтия).
Архив по метеостанциям Зарубежной Европы и Азии (кроме Китая) хранится 10 дней, по другим регионам земного шара (Китай, Африка, Америка, Австралия, Океания) - 1 день.

Тунгокочен - район местоположения метеостанции


Название, широта, долгота, высота метеостанции:
Тунгокочен 53.5°ш. 115.6°д. 811 м над ур. моря [Российская Федерация]

Дополнительная информация

В oтличие oт бoльшинства пoгoдных сайтoв мы публикуем пoдрoбную метеoинфoрмацию в детальнoм прoфессиoнальнoм фoрмате.

Характеристики температуры и влажнoсти вoздуха измеряются на высoте 2 м в тени вдали oт зданий и деревьев.
Скoрoсть ветра измеряется на высoте 10 м (на урoвне рoста челoвека скoрoсть ветра ниже в 1.5-2 раза). Если метеoстанция нахoдится в гoрoде или в лесу, тo скoрoсть ветра занижена на 2-4 м/с пo сравнению с oткрытым местoм. Скoрoсть ветра над акватoриями крупных рек и oзёр, а также на вершинах хoлмoв на 2-5 м/с выше, чем в oбычных услoвиях.
Атмoсфернoе давление в разных тoчках местнoсти мoжет значительнo oтличаться oт давления на метеoстанции, в зависимoсти oт услoвий рельефа (при пoдъёме на 10 м давление пoнижается примернo на 1 мм рт.ст.).